RS32S (SXC3-212 MONITO*) (53374 NORAD) Tracking and Keplerian Element Data

This shows tracking and keplerian element data for the satellite.

Feedback or suggestion? Click here.




ElementValue
Catalog53374
NameRS32S (SXC3-212 MONITO*)
Epoch Orbit744
Epoch Day270.15240641
Epoch Year2022
RAAN171.2648
Inclination97.4316
Eccentricity0.0003152
Argument of Perigee49.4962
Mean Anonmoly88.6642
Mean Motion15.25293115
Decay Rate9.902E-05
L11 53374U 22096E 22270.15240641 .00009902 00000+0 39602-3 0 9999
L22 53374 97.4316 171.2648 0003152 49.4962 88.6642 15.25293115 7441

Live tracking and technical data element details for RS32S (SXC3-212 MONITO*) (NORAD 53374). RS32S (SXC3-212 MONITO*) can be tracked NOW for your location showing map with azimuth and elevation plus other details from your city location.

Track the satellite on the map from your city or location and see movement details for azimuth, elevation, latitude, longitude, range, height, and movement on the map or in text.







IsCatalogInMostPopularTable: catalog: 53374, numindb: 1
Update: records affected: 1



GetName: 53374 RS32S (SXC3-212 MONITO*)

Hit Count: updated at: Wed, 28 Sep 2022 22:37:18 GMT